Regional Weather Roundup
Issued by NWS

Home | Current Version | Previous Version | Text Only | Print | Product List | Glossary Off
Versions: 1 2 3 4 5 6 7 8 9 10 11 12 13 14 15 16 17 18 19 20 21 22 23 24 25 26 27 28 29 30 31 32 33 34 35 36 37 38 39 40 41 42 43 44 45 46 47 48 49 50

000
ASUS43 KOAX 301702
RWRNE

WEATHER ROUNDUP FOR NEBRASKA
NATIONAL WEATHER SERVICE OMAHA NE
1100 AM CST FRI JAN 30 2015

NOTES: SATELLITE DATA IS BEING USED TO AUGMENT CLOUD COVER ABOVE
       12000 FEET.
       "FAIR" INDICATES FEW OR NO CLOUDS BELOW 12,000 FEET WITH NO
       SIGNIFICANT WEATHER AND/OR OBSTRUCTIONS TO VISIBILITY.

  * THESE STATIONS DO NOT REPORT WEATHER SUCH AS RAIN...SNOW OR FOG.

NEZ001>004-019>022-054>056-301800-
NEBRASKA PANHANDLE

CITY           SKY/WX    TMP DP  RH WIND       PRES   REMARKS
SCOTTSBLUFF    PTSUNNY   34  25  69 CALM      30.20F
ALLIANCE       PTSUNNY   37  25  61 S8        30.19F WCI  31
CHADRON        PTSUNNY   40  23  50 SW7       30.20F
SIDNEY         CLOUDY    38  26  62 S7        30.19F WCI  33
$$

NEZ057>060-069>072-079>082-301800-
SOUTHWEST NEBRASKA

CITY           SKY/WX    TMP DP  RH WIND       PRES   REMARKS
NORTH PLATTE   PTSUNNY   39  24  55 S16       30.29F WCI  30
IMPERIAL       CLOUDY    40  26  57 S12       30.26F WCI  33
MCCOOK         CLOUDY    41  28  60 S9        30.34F
$$

NEZ005>010-023>029-035>040-094-301800-
NORTH CENTRAL NEBRASKA

CITY           SKY/WX    TMP DP  RH WIND       PRES   REMARKS
VALENTINE      PTSUNNY   41  26  55 SW17      30.22F
BROKEN BOW     PTSUNNY   34  26  72 S8        30.33F WCI  27
ORD            CLOUDY    30  25  81 S10       30.37F WCI  21
$$

NEZ041-046>049-061>064-073>077-083>087-301800-
SOUTH CENTRAL NEBRASKA

CITY           SKY/WX    TMP DP  RH WIND       PRES   REMARKS
GRAND ISLAND     N/A     32  27  81 S12       30.43F WCI  23
HASTINGS       PTSUNNY   33  25  72 S10G20    30.42F WCI  25
KEARNEY *      PTSUNNY   34  27  75 S13       30.39F WCI  25
$$

NEZ011>018-030>034-042>045-301800-
NORTHEAST NEBRASKA

CITY           SKY/WX    TMP DP  RH WIND       PRES   REMARKS
NORFOLK        MOSUNNY   31  26  82 S9        30.43F WCI  23
COLUMBUS *     MOSUNNY   30  21  69 S9        30.47F WCI  22
TEKAMAH        SUNNY     29  20  69 S12       30.51F WCI  19
$$

NEZ050>053-065>068-078-088>093-301800-
SOUTHEAST NEBRASKA

CITY           SKY/WX    TMP DP  RH WIND       PRES   REMARKS
LINCOLN        PTSUNNY   29  24  82 S8        30.51F WCI  21
OMAHA EPPLEY   MOSUNNY   27  18  69 S8        30.53F WCI  19
FALLS CITY     MOSUNNY   27  22  81 SW3       30.56R
$$

NEZ044-045-051>053-067-301800-
OMAHA AREA

CITY           SKY/WX    TMP DP  RH WIND       PRES   REMARKS
OMAHA EPPLEY   MOSUNNY   27  18  69 S8        30.53F WCI  19
OFFUTT AFB     SUNNY     27  19  73 SE6       30.53F WCI  20
$$


USA.gov is the U.S. government's official web portal to all federal, state and local government web resources and services.